Location: Shepherdstown, WV
(39.4326°N, 77.8042°W)
Time: 00:20:05
(UTC-04:00)

Vanguard 1 Rocket - Visible Passes

Search period start: 06 August 2021 00:00
Search period end: 16 August 2021 00:00
Orbit: 650 x 4226 km, 34.3° (Epoch: 05 August)

Date Brightness Start Highest point End Pass type
(mag) Time Alt. Az. Time Alt. Az. Time Alt. Az.
07 Aug 11.9 05:01:56 10° SSE 05:11:05 13° SE 05:19:56 10° ESE visible
09 Aug 11.7 04:58:29 10° SSE 05:12:56 19° SE 05:26:57 10° E visible
11 Aug 11.6 04:57:23 10° S 05:14:39 24° SE 05:31:47 10° E visible
12 Aug 11.7 03:52:01 10° SSE 04:01:32 14° SE 04:11:24 10° ESE visible
13 Aug 11.4 04:57:21 10° S 05:16:16 30° SE 05:35:40 10° E visible
14 Aug 11.5 03:49:28 10° SSE 04:03:05 19° SE 04:17:51 10° E visible
15 Aug 11.3 04:58:00 10° SSW 05:17:52 37° SE 05:39:01 10° E visible
